AirNav   Air Wisconsin Up To $57,000 Bonus
 
 645 users online  

3A2 New Tazewell Municipal Airport
Tazewell, Tennessee, USA

GOING TO TAZEWELL?


FAA INFORMATION EFFECTIVE 08 SEPTEMBER 2022

Location

FAA Identifier: 3A2
Lat/Long: 36-24-32.0300N 083-33-25.8690W
36-24.533833N 083-33.431150W
36.4088972,-83.5571858
(estimated)
Elevation: 1178.8 ft. / 359.3 m (surveyed)
Variation: 05W (2005)
From city: 3 miles SE of TAZEWELL, TN
Time zone: UTC -4 (UTC -5 during Standard Time)
Zip code: 37879

Airport Operations

Airport use: Open to the public
Control tower: no
ARTCC: ATLANTA CENTER
FSS: NASHVILLE FLIGHT SERVICE STATION
NOTAMs facility: BNA (NOTAM-D service available)
Attendance: 0800-1600
AFT HR - AMGR.
Wind indicator: lighted
Segmented circle: yes
Lights: ACTVT PAPI RWY 07 & 25 - CTAF.
Beacon: white-green (lighted land airport)
Operates sunset to sunrise.

Airport Communications

CTAF: 122.9
WX AWOS-3 at 1A6 (15 nm NW): 119.425 (606-248-3095)
WX AWOS-3 at MOR (16 nm SE): 126.725 (423-587-5886)
  • APCH/DEP SVC PRVDD BY ATLANTA ARTCC ON FREQS 133.6/254.3 (HINCH MOUNTAIN RCAG).

Nearby radio navigation aids

VOR radial/distance  VOR name  Freq  Var
VXVr031/34.4VOLUNTEER VORTAC116.4003W

 
NDB name  Hdg/Dist  Freq  Var  ID
JEFFERSON352/18.334604WJXT .--- -..- -
ROGERSVILLE272/32.632907WRVN .-. ...- -.

Airport Services

Fuel available: 100LL
Parking: tiedowns
Airframe service: MAJOR
Powerplant service: MAJOR

Runway Information

Runway 7/25

Dimensions: 5208 x 75 ft. / 1587 x 23 m
Surface: asphalt, in good condition
Weight bearing capacity: 
PCN 9 /F/D/X/T
Single wheel: 16.0
Double wheel: 24.0
Runway edge lights: medium intensity
RUNWAY 7  RUNWAY 25
Latitude: 36-24.350033N36-24.717598N
Longitude: 083-33.910915W083-32.951352W
Elevation: 1176.6 ft.1172.2 ft.
Traffic pattern: leftleft
Runway heading: 070 magnetic, 065 true250 magnetic, 245 true
Markings: basic, in good conditionbasic, in good condition
Visual slope indicator: 2-light PAPI on left (3.50 degrees glide path)2-light PAPI on left
Runway end identifier lights: yesyes
Touchdown point: yes, no lightsyes, no lights
Obstructions: 29 ft. trees, 777 ft. from runway, 64 ft. left of centerline, 19:1 slope to clear148 ft. tree, 4300 ft. from runway, 881 ft. left of centerline, 27:1 slope to clear

Airport Ownership and Management from official FAA records

Ownership: Publicly-owned
Owner: CITY OF NEW TAZEWELL
PO BOX 609
NEW TAZEWELL, TN 37824
Phone (423) 626-5242
Manager: JERRY HOOPER
380 AIRPORT LANE
TAZEWELL, TN 37879
Phone 423-626-5242

Airport Operational Statistics

Aircraft based on the field: 24
Single engine airplanes: 20
Multi engine airplanes: 3
Helicopters: 1
    
Aircraft operations: avg 32/day *
91% local general aviation
9% transient general aviation
<1% military
* for 12-month period ending 30 June 2018

Additional Remarks

DEER ON & INVOF ARPT.
FOR CD CTC ATLANTA ARTCC AT 770-210-7692.

Instrument Procedures

NOTE: All procedures below are presented as PDF files. If you need a reader for these files, you should download the free Adobe Reader.

NOT FOR NAVIGATION. Please procure official charts for flight.
FAA instrument procedures published for use from 8 September 2022 at 0901Z to 6 October 2022 at 0900Z.

 
IAPs - Instrument Approach Procedures
RNAV (GPS) RWY 07   download (200KB)
NOTE: Special Take-Off Minimums/Departure Procedures apply   download

Other nearby airports with instrument procedures:

1A6 - Middlesboro/Bell County Airport (15 nm NW)
KMOR - Moore-Murrell Airport (16 nm SE)
0VG - Lee County Airport (22 nm NE)
I35 - Tucker-Guthrie Memorial Airport (29 nm N)
KJAU - Colonel Tommy C Stiner Airfield (30 nm W)
 
Loc | Ops | Rwys | IFR | FBO | Links
Com | Nav | Svcs | Stats | Notes
Area around 3A2 (New Tazewell Municipal Airport)
 
Road maps at: MapQuest Bing Google
 
Aerial photo
WARNING: Photo may not be current or correct
Aerial photo of 3A2 (New Tazewell Municipal Airport)
Photo by Morgan Michel

Do you have a better or more recent aerial photo of New Tazewell Municipal Airport that you would like to share? If so, please send us your photo.

 
Sectional chart

 
Airport distance calculator
Flying to New Tazewell Municipal Airport? Find the distance to fly.

From to 3A2

Sunrise and sunset
Times for 27-Sep-2022
 Local
(UTC-4)
 Zulu
(UTC)
Morning civil twilight07:0111:01
Sunrise07:2711:27
Sunset19:2323:23
Evening civil twilight19:4923:49

Current date and time
Zulu (UTC)  27-Sep-2022 08:53:06
Local (UTC-4)  27-Sep-2022 04:53:06
 
METAR
K1A6 
15nm NW 
270835Z AUTO 00000KT 10SM SCT003 06/06 A3004 RMK AO2 T00590059
KMOR 
16nm SE 
270130Z AUTO 33005KT 10SM FEW050 16/06 A2997 RMK A01
K0VG 
22nm NE 
270835Z AUTO 00000KT 10SM CLR 05/05 A3003 RMK AO2
KI35 
29nm N 
270835Z AUTO 00000KT M1/4SM OVC001 06/06 A3003 RMK AO2 T00620062
KJAU 
30nm W 
270835Z AUTO 00000KT 10SM CLR 06/05 A3007 RMK A01
TAF
NOTAMs
Click for the latest NOTAMs
NOTAMs are issued by the DoD/FAA and will open in a separate window not controlled by AirNav.

 

 
 

FBO, Fuel Providers, and Aircraft Ground Support

  
 Business Name 
 
 Contact 
 
 Services / Description 
 
Fuel Prices
 
Comments
  
New Tazewell Municipal Airport 423-626-5242
[email]
Aviation fuel, Aircraft parking (ramp or tiedown), Hangar leasing / sales, Passenger terminal and lounge, Flight training, Aircraft maintenance, ...

More info about New Tazewell Municipal Airport
Titan
100LL
SS $6.50 
 Updated 24-Aug-2022
 
   1 read write
SS=Self service
Update Fuel Prices
 

Would you like to see your business listed on this page?

 If your business provides an interesting product or service to pilots, flight crews, aircraft, or users of the New Tazewell Municipal Airport, you should consider listing it here.  To start the listing process, click on the button below
 
Add a business
 

Other Pages about New Tazewell Municipal Airport

Update a link
 
Copyright © AirNav, LLC. All rights reserved. Privacy Policy  Contact